User: anonymous   Login
Location: Whitehorse
(60.7170°N, 135.0500°W)
Time: 01:54:45
(UTC-07:00)
Language:

Cosmos 2219 Rocket - Orbit

View from above orbital plane
View from above orbital plane
View from above satellite
View from above satellite

Ground track
Ground track

The orbit data is extracted from the following two-line orbital elements,

1 22220U 92076B   18111.53682743 +.00000156 +00000-0 +10218-3 0  9999
2 22220 070.9980 130.1803 0012412 173.4080 345.9477 14.16431207314109
Epoch (UTC): 21 April 2018 12:53:01
Eccentricity: 0.0012412
inclination: 70.9980°
perigee height: 828 km
apogee height: 846 km
right ascension of ascending node: 130.1803°
argument of perigee: 173.4080°
revolutions per day: 14.16431207
mean anomaly at epoch: 345.9477°
orbit number at epoch: 31410

The dashed part of the orbit path shows where the satellite is in the earth's shadow,  

DLR